Theta_e
311 310 310 309 309 308 308 308 307 307 306 306 305 305 306 306 306 306 303 298 298 297 300 300 306 305 307 306 304 303 308 311 312 314 314 318 321 327 330 331 329 329 330
311 310 310 310 309 309 308 308 307 307 306 306 306 306 306 305 305 305 305 302 302 298 305 300 305 299 305 305 301 299 306 309 310 313 313 316 320 326 326 326 328 326 326
312 310 310 310 309 309 308 308 308 308 307 307 306 306 306 306 306 305 305 305 303 303 298 302 301 302 306 304 302 300 304 306 308 310 311 312 315 309 320 318 319 319 320
311 310 310 309 310 309 308 308 308 308 307 308 307 307 307 307 307 307 307 306 305 304 303 302 303 303 306 301 304 301 299 304 306 307 308 310 312 313 312 312 312 312 311
310 310 310 310 309 309 309 308 308 308 307 308 308 308 307 307 307 307 307 307 306 306 305 303 303 303 305 305 303 297 300 302 304 304 306 307 308 313 310 309 309 309 309
311 310 309 309 309 309 309 309 309 308 308 308 308 308 308 308 308 308 307 307 307 306 306 303 302 304 302 303 305 304 304 302 300 303 304 304 305 306 307 308 307 308 307
311 310 309 309 309 309 309 309 308 308 308 309 309 309 309 309 308 307 307 307 307 306 306 306 304 304 303 302 302 303 305 304 303 303 303 303 303 305 305 305 305 306 305
311 310 310 309 308 308 308 308 308 308 308 308 308 308 309 308 308 308 307 307 307 307 307 307 306 306 303 303 302 303 304 304 303 301 303 303 303 303 303 304 304 303 303
311 310 310 309 308 308 308 309 309 308 307 308 308 308 308 309 309 309 309 309 309 308 307 308 308 307 307 306 306 305 304 305 304 303 303 303 303 302 303 303 304 303 303
311 310 309 309 308 309 308 308 308 308 307 307 307 307 307 307 308 308 308 309 309 309 308 308 308 308 307 307 306 306 305 305 305 305 304 303 302 302 302 302 302 303 302
311 310 309 309 309 308 308 307 307 306 306 305 305 306 306 306 305 305 306 306 306 306 306 306 306 306 306 305 305 305 305 305 305 304 305 304 304 303 302 302 301 301 301
310 310 309 309 308 307 306 306 306 305 304 304 304 304 304 303 303 302 303 303 303 303 303 304 304 304 304 304 304 304 304 304 304 304 304 304 304 303 302 302 301 301 300
310 309 308 307 306 306 305 305 304 302 301 300 300 300 299 298 298 298 298 298 298 298 298 299 300 301 301 302 303 303 303 303 303 303 304 303 303 303 303 302 302 301 300
308 307 306 306 305 304 303 301 300 298 297 296 296 296 296 296 296 295 295 295 295 295 295 295 295 296 296 297 298 298 300 301 302 303 303 303 303 302 303 302 302 301 300
306 306 306 304 302 300 299 298 297 296 295 295 295 295 295 294 294 293 293 293 293 293 293 293 293 294 294 294 295 295 295 296 297 298 299 300 301 302 302 302 301 300 299
305 305 304 301 299 297 297 296 296 295 295 295 294 294 293 292 292 292 292 292 292 292 292 292 292 293 292 292 292 292 292 292 293 293 294 295 296 299 300 302 301 300 297
304 303 300 298 297 296 295 295 295 295 294 293 293 292 291 291 291 291 291 291 291 291 291 291 291 291 291 290 289 289 290 290 289 291 292 294 295 296 297 300 301 301 300
302 299 298 297 296 296 295 294 293 293 292 291 291 290 290 290 290 290 290 290 290 290 290 290 290 291 290 290 290 289 289 290 290 290 291 291 292 294 295 296 300 300 299
300 298 297 296 295 294 293 293 292 292 291 290 290 289 289 289 290 289 289 289 289 289 288 289 289 289 289 289 289 289 289 289 290 289 289 290 291 291 293 295 297 298 296
298 297 296 295 295 294 293 293 292 290 290 289 289 289 289 289 289 289 288 288 287 287 288 288 288 288 288 287 288 289 289 288 288 289 288 289 290 290 291 292 295 297 296
297 296 295 295 294 294 293 292 291 289 289 289 289 289 289 288 288 288 287 287 287 287 287 287 287 286 286 287 287 287 288 287 287 287 287 288 289 289 290 291 293 296 295
298 296 294 294 293 293 292 291 290 289 289 288 288 288 288 288 287 287 286 286 286 286 286 286 285 285 286 286 286 286 286 285 285 287 287 288 288 289 289 290 292 294 294
295 294 294 293 292 291 290 290 289 288 288 288 288 288 288 287 287 286 286 285 285 285 285 285 285 284 284 284 284 284 284 284 285 286 287 288 288 288 289 290 291 292 292
294 293 293 291 290 290 289 289 289 288 288 288 288 287 287 287 286 286 285 285 284 284 284 284 283 283 283 283 283 282 282 282 283 285 288 287 288 288 289 289 289 290 291
293 291 290 290 289 289 289 289 288 288 288 287 287 287 286 286 286 285 285 284 284 283 283 282 282 282 282 282 281 281 281 281 281 284 286 287 287 288 289 289 289 290 289
289 289 289 289 288 288 288 288 288 288 287 287 287 286 286 286 285 285 284 284 283 283 282 282 283 282 282 282 281 281 280 280 281 284 285 287 287 287 288 288 289 290 289
Wind_Speed
7 5 4 5 5 7 8 9 10 11 10 10 10 10 10 10 10 11 14 17 18 19 18 17 16 17 15 17 18 17 15 13 18 14 16 14 12 15 20 21 20 20 22
6 4 2 3 4 4 6 7 8 10 10 11 11 10 10 11 11 12 13 16 15 17 15 17 16 18 15 17 19 20 18 13 17 18 15 11 6 3 4 10 14 19 18
8 5 4 3 2 1 3 4 6 8 10 10 10 9 10 9 11 12 13 13 15 15 17 16 16 16 15 16 18 19 17 16 14 14 14 10 9 19 4 9 12 15 12
9 7 6 4 2 1 1 3 4 6 8 10 9 11 10 11 13 13 14 14 15 15 15 16 16 16 14 17 16 16 17 14 14 13 11 10 10 8 13 13 13 16 16
12 9 7 6 4 2 2 0 2 4 5 7 8 9 10 10 10 12 13 13 14 14 14 18 17 16 14 15 17 19 17 14 12 13 13 12 9 9 14 19 21 18 18
15 11 9 7 5 3 3 2 1 2 4 6 7 8 10 11 12 13 13 14 13 13 15 20 18 17 18 17 16 16 14 16 15 13 12 11 12 12 14 16 19 20 19
17 13 10 8 6 5 4 3 3 4 6 7 9 11 12 13 14 15 15 16 16 16 15 17 18 18 19 20 21 20 17 15 16 15 14 13 13 13 14 15 18 19 19
18 15 12 10 7 6 4 4 5 6 8 10 12 13 15 16 17 17 18 19 19 18 19 19 18 18 19 20 21 20 18 17 19 20 16 16 15 15 15 16 18 22 19
20 17 13 11 8 7 6 6 8 9 12 13 14 15 16 17 18 20 20 21 21 22 23 23 22 22 21 21 21 21 21 21 21 21 20 18 17 17 17 17 17 18 22
20 17 14 12 10 8 7 8 9 10 11 10 11 12 13 14 15 17 18 20 22 23 24 25 26 25 25 25 25 25 24 24 24 23 21 21 21 19 18 19 19 19 21
19 16 14 11 9 8 7 5 5 5 7 9 10 12 13 14 14 15 16 17 18 19 21 23 24 26 27 28 29 30 30 31 31 30 29 27 25 23 21 21 20 22 22
17 14 11 10 8 5 4 3 3 5 7 10 11 12 13 15 15 16 16 17 18 19 20 21 23 24 26 27 28 31 32 34 36 36 35 34 31 31 27 24 23 23 23
14 11 9 9 7 4 2 2 4 6 8 11 12 13 15 16 17 18 19 19 21 21 22 23 23 25 26 28 30 33 35 36 37 38 39 39 37 36 34 32 28 25 24
13 12 10 7 4 2 0 2 5 8 10 11 13 14 16 18 19 20 21 22 23 24 24 24 25 26 27 27 28 30 31 30 31 34 36 39 41 42 38 36 34 31 28
12 10 8 5 3 1 3 5 7 10 12 13 15 17 18 20 21 22 23 24 25 25 26 27 26 26 27 26 29 34 32 33 37 38 40 42 43 41 45 44 37 34 31
11 9 6 4 2 2 4 7 10 12 14 15 17 19 20 21 22 23 24 25 26 27 27 27 28 27 27 29 33 36 40 37 38 41 41 42 43 45 47 50 51 48 36
10 8 5 3 1 3 6 9 12 14 15 17 19 20 21 23 24 25 26 27 27 28 28 29 29 31 31 33 34 35 36 36 37 37 39 40 40 43 47 45 51 53 50
9 7 4 1 2 5 8 11 14 16 17 19 20 21 23 24 25 26 27 28 28 29 31 32 32 33 34 35 34 37 37 36 36 34 36 38 42 41 43 47 47 46 48
8 5 2 1 4 8 11 14 16 18 19 20 21 22 23 25 26 27 29 29 30 33 35 34 36 37 35 35 37 36 34 36 36 35 37 36 37 39 41 43 45 48 37
6 3 1 4 7 11 13 16 19 20 21 21 22 22 24 25 27 28 30 31 32 34 35 37 37 35 37 36 35 33 30 35 38 37 36 38 40 38 37 40 47 46 41
5 2 4 8 11 14 17 19 21 22 22 22 22 23 24 26 28 29 30 34 35 37 38 38 37 38 36 35 35 36 35 34 38 41 41 40 39 40 39 38 38 48 42
3 4 8 11 14 17 19 22 23 23 23 23 24 25 26 28 30 30 33 34 35 37 38 38 38 37 35 34 36 35 34 38 39 39 39 38 38 40 38 40 30 34 34
4 8 12 15 17 19 20 23 23 23 23 24 25 27 28 29 28 31 32 35 35 36 37 37 37 40 41 36 36 33 38 39 37 35 33 33 37 38 36 33 28 35 35
8 11 15 18 20 20 21 22 23 23 24 25 27 29 30 29 29 31 32 33 36 37 37 37 41 41 41 37 35 40 38 37 38 35 30 30 33 29 29 27 20 29 32
11 15 17 19 21 21 22 22 23 24 26 27 30 30 30 29 30 31 32 34 36 35 35 38 37 37 39 38 38 35 39 40 37 35 29 29 27 25 23 22 15 8 20
14 15 17 19 21 22 22 23 24 25 28 31 31 30 29 29 31 31 34 37 35 38 37 36 33 36 34 37 37 36 40 41 29 25 26 24 22 21 18 17 14 8 8
Wind_Direction
147 127 98 74 57 52 44 42 32 32 31 27 24 20 15 15 11 14 15 18 17 19 14 16 8 11 5 4 6 9 1 358 348 345 332 313 280 267 258 251 270 260 258
166 150 112 79 59 46 44 34 33 28 33 25 18 18 17 12 11 9 11 9 16 16 16 15 10 8 6 1 5 7 3 1 357 355 342 342 316 1 284 306 270 291 259
183 176 172 164 117 51 28 28 26 28 27 40 22 30 15 2 7 8 4 1 8 8 11 11 8 8 6 2 4 2 7 360 359 7 8 349 341 344 22 349 347 335 320
192 186 186 185 187 176 79 45 27 28 15 27 27 26 23 15 10 8 7 7 4 7 6 5 2 1 2 357 359 356 5 0 356 357 3 349 326 333 327 323 335 325 340
196 194 190 189 182 200 190 109 28 14 7 10 14 18 7 2 356 354 358 359 358 358 359 4 0 356 354 348 351 351 353 356 352 349 343 340 336 308 317 314 320 330 330
197 195 191 186 190 193 196 223 297 323 330 339 341 341 338 337 334 337 343 341 344 345 343 351 354 354 349 347 343 340 336 337 343 335 335 329 322 316 312 307 312 316 322
198 199 196 197 201 209 219 232 273 296 308 313 318 317 316 317 321 320 323 324 327 326 326 329 334 336 335 337 338 334 329 324 319 322 319 315 310 309 307 307 307 309 313
199 203 203 203 205 208 217 245 274 295 303 307 308 308 308 308 306 307 305 305 306 308 306 309 308 311 312 314 318 319 316 312 311 312 306 304 303 298 298 302 305 306 306
197 202 203 206 210 220 241 264 278 293 301 303 304 306 307 305 303 302 300 300 297 297 297 293 296 298 299 299 298 298 297 298 300 302 301 296 294 292 291 290 292 294 298
195 200 205 210 223 238 255 274 286 295 302 309 320 321 323 319 313 309 305 301 299 298 296 295 294 292 292 293 292 290 291 287 285 286 284 282 286 286 285 284 285 285 285
193 201 208 215 227 245 259 270 294 312 320 330 331 329 329 326 327 323 317 313 308 307 304 301 297 295 294 293 291 289 288 287 286 283 281 280 279 278 279 280 279 279 279
192 198 206 215 217 215 234 267 321 337 338 336 332 329 331 330 328 323 320 317 316 311 309 305 301 298 296 294 292 289 288 285 282 282 280 278 278 276 273 274 273 273 272
183 195 193 188 185 185 206 288 331 341 343 337 331 326 327 327 326 323 319 317 314 311 309 306 302 299 295 292 291 290 289 287 284 281 277 275 274 272 269 267 265 266 269
185 179 177 169 162 155 124 346 339 342 340 338 332 326 325 324 322 319 317 315 314 311 310 306 303 300 300 296 296 293 288 283 283 282 280 278 273 269 267 265 265 264 261
176 179 174 163 148 89 9 351 344 337 334 332 327 322 320 320 319 318 318 317 316 314 312 311 309 305 303 301 293 296 301 298 290 283 280 281 278 278 268 261 259 261 258
172 170 166 154 117 20 355 339 333 330 328 325 322 319 318 318 318 317 317 315 315 313 312 311 309 307 304 298 296 296 297 301 296 292 288 284 280 276 272 264 259 257 250
170 168 168 149 61 347 340 329 327 323 320 319 317 315 317 317 318 317 317 316 315 314 313 311 308 307 306 306 307 309 308 307 300 294 294 291 287 282 275 273 257 258 257
169 163 161 146 343 331 325 323 322 321 316 315 314 314 316 315 315 315 316 316 316 315 313 310 308 307 305 308 309 307 304 302 304 300 297 294 290 283 280 278 265 247 251
161 163 151 307 323 317 321 320 319 318 315 314 310 312 314 315 315 316 316 316 315 313 311 309 309 306 307 309 308 303 303 299 300 303 300 300 299 293 282 276 278 245 236
152 157 233 313 320 313 316 313 316 315 315 310 311 313 314 314 314 315 315 314 313 312 311 310 308 309 310 309 308 310 315 306 304 301 302 301 305 306 297 282 271 253 230
170 218 305 310 309 311 310 309 312 313 312 310 311 312 314 313 313 314 314 315 315 314 313 312 313 313 309 309 312 312 312 311 307 305 303 306 307 307 306 290 275 249 229
224 294 304 306 308 309 308 307 309 311 311 311 312 313 313 313 313 313 315 316 316 316 315 317 315 310 308 307 308 310 309 307 311 308 301 302 309 310 307 299 280 239 211
284 300 305 306 308 309 310 307 309 311 311 311 311 311 312 312 312 315 315 317 318 317 317 315 314 311 309 309 314 313 308 311 313 311 302 302 309 314 312 306 269 254 229
304 307 308 308 310 312 311 307 309 310 309 309 310 311 312 312 314 314 316 317 317 318 317 315 313 311 311 312 314 313 313 313 312 320 315 303 313 316 322 322 293 259 225
310 309 311 311 312 313 310 309 308 309 308 308 310 310 310 312 314 312 315 315 312 313 312 311 310 311 313 315 319 321 323 318 314 316 312 314 315 321 326 323 321 305 238
313 312 311 310 312 313 311 310 311 309 307 308 307 310 310 312 310 312 317 314 313 314 313 314 309 310 308 316 317 316 323 319 320 311 310 309 312 319 331 330 333 301 257